www.pogodaiklimat.ru

Погода и климат >> Архив погоды >> Канада >> Ньюфаундленд и Лабрадор >> Сент-Джонс аэропорт


АРХИВ ПОГОДЫ в Сент-Джонс аэропорту

Время (UTC), дата Ветер
(напр.,м/с)
 
Видим.   Явления Облачность Т
(С)
Тd
(С)
f
(%)
Тe
(С)
Тes
(С)
Комфортность P
(гПа)
Po
(гПа)
Тmin
(С)
Tmax
(С)
R
(мм)
R24
(мм)
S
(см)
18 16.01 З 3 24 км слаб. ливневой снег 10/10 300 м
[Sc]
-5.8 -7.9 85 -11 -11 по сезону 1017.4 999.7 -6.5 -2.7 0.0 16
21 16.01 Ю 3 24 км 10/10 300 м
[]
-5.6 -7.8 84 -11 -11 по сезону 1018.5 1000.8
00 17.01 Ю 4 24 км {ливн. осадки} 10/10 600 м
[Sc]
-5.0 -6.9 86 -11 -11 по сезону 1018.6 1000.8 -6.5 -5.0 0.0 16
03 17.01 Ю 4 24 км 10/10 600 м
[]
-4.2 -6.0 87 -10 -10 по сезону 1018.0 1000.3
06 17.01 Ю 5 24 км 10/10 300 м
[Sc]
-3.4 -5.5 85 -10 -10 по сезону 1016.9 999.2 -6.5 -2.7 72
09 17.01 Ю 5 24 км 10/10 300 м
[]
-2.9 -4.0 92 -10 -10 по сезону 1015.1 997.4
12 17.01 Ю 7 24 км {ливн. осадки} 10/10 1500 м
[Sc]
-1.7 -3.0 91 -9 -9 по сезону 1011.3 993.7 -5.0 -2.7 0.0 16
15 17.01 Ю 13 24 км 10/10 300 м
[]
+0.8 -0.7 90 -8 -8 по сезону 1009.5 992.0
18 17.01 З 11 24 км в посл. час снег {морось} 9/9 600 м
[Sc]
-0.1 -2.1 86 -9 -9 по сезону 1008.5 991.0 -5.9 +1.3 0.2 14
21 17.01 З 10 24 км 6/6 600 м
[]
-4.5 -8.8 72 -14 -14 прохладно 1011.8 994.2
00 18.01 З 9 24 км 10/10 600 м
[Sc]
-5.9 -10.0 73 -15 -15 прохладно 1014.3 996.7 -6.0 +1.3
03 18.01 З 9 24 км 1/1 600 м
[]
-8.8 -15.0 61 -19 -19 холодно 1018.2 1000.5
06 18.01 З 10 24 км 4/4 600 м
[Sc]
-9.8 -15.0 66 -20 -20 очень
холодно
1021.1 1003.3 -9.8 +1.3 162
09 18.01 З 9 24 км ясно -10.7 -15.8 66 -21 -21 очень
холодно
1024.0 1006.1
12 18.01 СЗ 9 24 км 5/3 600 м
[Sc Ac trans]
-10.5 -15.8 65 -21 -21 очень
холодно
1027.0 1009.0 -11.2 +1.3 14
15 18.01 З 9 24 км 4/4 600 м
[]
-8.8 -15.1 60 -19 -19 очень
холодно
1029.4 1011.3
18 18.01 З 5 24 км 6/6 600 м
[Sc]
-7.7 -13.4 64 -15 -15 прохладно 1028.8 1010.7 -11.2 -7.6
21 18.01 Ю 4 24 км 9/9 600 м
[]
-7.6 -12.5 68 -14 -14 прохладно 1029.9 1011.8
00 19.01 Ю 4 24 км 10/10 600 м
[Sc]
-6.5 -11.0 70 -13 -13 по сезону 1029.5 1011.4 -11.2 -6.5
03 19.01 Ю 5 24 км 10/10 600 м
[]
-5.5 -9.2 75 -13 -13 по сезону 1027.5 1009.5
06 19.01 Ю 8 24 км 10/10 600 м
[Sc]
-4.7 -8.4 75 -13 -13 по сезону 1024.5 1006.6 -11.2 -4.7 71
09 19.01 Ю 8 2000 м 10/10 200 м
[]
-4.3 -5.0 95 -13 -13 по сезону 1020.5 1002.7
12 19.01 ЮВ 10 800 м снег н/о -2.8 -3.2 97 -12 -12 по сезону 1014.9 997.2 -6.6 -4.7 4 19
15 19.01 Ю 6 4000 м 10/10 50 м
[]
-1.1 -1.5 97 -8 -8 по сезону 1011.0 993.4
18 19.01 З 8 24 км {снег, морось} 10/10 300 м
[Sc]
+0.5 -0.6 92 -7 -7 по сезону 1008.9 991.4 -7.8 +1.0 5 21
21 19.01 З 7 24 км 6/6 600 м
[]
-1.8 -4.4 82 -9 -9 по сезону 1013.7 996.1
00 20.01 СЗ 6 24 км {снег} 1/1 600 м
[Sc]
-6.9 -11.5 70 -15 -15 прохладно 1018.6 1000.9 -6.9 +1.0 0.0 21
03 20.01 СЗ 8 24 км 3/0
[]
-9.7 -13.3 75 -19 -19 холодно 1023.0 1005.2
06 20.01 СЗ 8 24 км 8/3 600 м
[Sc Ac As]
-10.1 -13.5 76 -20 -20 холодно 1026.0 1008.1 -10.5 +1.0 142
09 20.01 СЗ 6 24 км 8/0
[]
-10.8 -14.0 77 -19 -19 холодно 1028.3 1010.3
12 20.01 С 2 24 км 10/0
[Ac As Ci sp]
-10.4 -14.0 75 -15 -15 по сезону 1031.6 1013.5 -10.8 +1.0 21
15 20.01 С 2 24 км 10/0
[]
-9.3 -15.3 62 -14 -12 по сезону 1033.0 1014.8
18 20.01 В 2 24 км 9/0
[Ac As Ci sp]
-8.8 -14.4 64 -13 -12 по сезону 1033.3 1015.1 -10.8 -8.5
21 20.01 ЮВ 5 24 км 10/10 300 м
[]
-7.3 -10.8 76 -14 -14 по сезону 1032.4 1014.3
00 21.01 ЮВ 8 24 км 10/10 300 м
[Sc]
-4.8 -8.0 78 -13 -13 по сезону 1029.1 1011.1 -10.8 -4.8
03 21.01 Ю 15 24 км 10/10 300 м
[]
-2.5 -3.7 91 -13 -13 по сезону 1023.9 1006.0
06 21.01 Ю 13 16 км 10/10 100 м
[St]
-1.2 -1.6 97 -11 -11 по сезону 1019.9 1002.1 -10.8 -1.2 42
09 21.01 Ю 14 3200 м 10/10 100 м
[]
+0.7 +0.6 99 -9 -9 по сезону 1014.0 996.4
12 21.01 Ю 13 400 м слаб. морось н/о +4.2 +4.2 100 -4 -4 тепло 1009.6 992.2 -4.8 -1.2 0.8 18
15 21.01 Ю 14 24 км 10/10 300 м
[]
+9.4 +8.4 93 +4 +4 тепло 1006.8 989.6
18 21.01 24 км {морось, туман} н/о +9.8 +8.5 92 +4 +4 тепло 1003.8 986.6 -9.0 +10.6 0.4 16
21 21.01 Ю 14 24 км 10/10 300 м
[]
+8.6 +8.0 96 +3 +3 тепло 1002.2 985.1
00 22.01 Ю 12 24 км слаб. дождь {морось} 10/10 100 м
[Frnb]
+7.5 +7.1 97 +1 +1 тепло 1000.0 982.9 -1.2 +10.6 8 12
03 22.01 ЮЗ 11 24 км 10/10 200 м
[]
+7.0 +6.3 95 +1 +1 тепло 998.5 981.5
06 22.01 ЮЗ 4 24 км {дождь} 10/10 200 м
[Sc]
+3.6 +3.3 98 -1 -1 тепло 998.7 981.7 -1.2 +10.6 6 173
09 22.01 З 10 24 км 10/10 600 м
[]
+0.7 +0.1 96 -7 -7 по сезону 999.1 982.0
12 22.01 З 12 12 км слаб. ливневой снег 10/10 100 м
[Frnb]
-0.4 -0.8 97 -10 -10 по сезону 999.1 982.0 -0.5 +10.6 0.4 8
15 22.01 З 9 1600 м 5/5 200 м
[]
-0.7 -1.2 96 -9 -9 по сезону 1000.9 983.7
18 22.01 З 4 24 км {ливн. осадки} 9/8 300 м
[Sc Ci sp]
+0.4 -1.9 85 -5 -4 по сезону 1001.7 984.5 -0.8 +4.4 0.0 8
21 22.01 З 5 24 км 9/9 1000 м
[]
-0.8 -2.3 90 -7 -7 по сезону 1003.6 986.3
00 23.01 З 4 3200 м слаб. ливневой снег 10/10 100 м
[Cu med, cong]
-1.5 -1.9 97 -7 -7 по сезону 1004.4 987.0 -1.8 +0.5 0.6 9
03 23.01 З 6 24 км 10/10 300 м
[]
-3.1 -4.1 93 -10 -10 по сезону 1005.0 987.6
06 23.01 З 7 4800 м слаб. ливневой снег 10/10 200 м
[Cu med, cong]
-4.2 -5.8 89 -12 -12 по сезону 1006.3 988.9 -4.2 +4.4 0.4 121
09 23.01 СЗ 7 3600 м 10/10 600 м
[]
-5.3 -7.3 86 -14 -14 по сезону 1008.6 991.1
12 23.01 З 7 24 км {ливн. осадки} 10/10 300 м
[Sc]
-5.8 -7.2 90 -14 -14 по сезону 1012.2 994.6 -6.1 +4.4 0.2 11

 

Местоположение метеостанции Сент-Джонс аэропорт (Ньюфаундленд и Лабрадор, Канада): широта 47.62 долгота -52.73 высота над уровнем моря 140 м.

В архиве по умолчанию представлена погода в Сент-Джонс аэропорту за последнюю неделю. Архивные данные за месяц целиком и за предыдущие месяцы, начиная с января 2011 года, Вы можете получить, выбрав интересующий диапазон дат из раскрывающегося списка и нажав кнопку "Ввод!".


*Определитесь, кто Вы:
робот инопланетянин человек

Внимание! Время в таблицах - всемирное. Для получения местного времени необходимо прибавить поправку, которая равна -4 ч.

Смотрите также архив погоды в соседних городах и на ближайших метеорологических станциях:

Погода в Санди Лейк (Онтарио, Канада) (12 км)
Погода в Грейтс Ков (Ньюфаундленд и Лабрадор, Канада) (63 км)
Погода в Аргентии (Ньюфаундленд и Лабрадор, Канада) (102 км)
Погода в Кейп-Рейсе (Ньюфаундленд и Лабрадор, Канада) (111 км)
Погода в Ботависте (Ньюфаундленд и Лабрадор, Канада) (120 км)
Погода в Пемброке (Онтарио, Канада) (120 км)
Погода в Терра Нова (Ньюфаундленд и Лабрадор, Канада) (138 км)
Погода в Пуллс Айленд (Ньюфаундленд и Лабрадор, Канада) (176 км)
Погода в Гандере (Ньюфаундленд и Лабрадор, Канада) (199 км)
Погода в Гандере (Ньюфаундленд и Лабрадор, Канада) (199 км)

Пояснения к столбцам:

Ветер - указаны скорость ветра в м/с - средняя за 10 мин, порывы в срок и между сроками (в фигурных скобках) и направление, откуда дует ветер: С - северный, СВ - северо-восточный, В - восточный, ЮВ - юго-восточный, Ю - южный, ЮЗ - юго-западный, З - западный, СЗ - северо-западный.
Видимость - горизонтальная дальность видимости в метрах или километрах. При видимости от 1 до 10 км при отсутствии осадков обычно наблюдается дымка, при ухудшении видимости до 1 км и менее - туман. В сухую погоду видимость может ухудшаться дымом, пылью или мглою.
Явления - указаны атмосферные явления, наблюдавшиеся в срок или в последний час перед сроком; фигурными скобками обозначены явления, наблюдавшиеся между сроками (за 1-3 часа до срока); квадратными скобками обозначены град или гололедные отложения с указанием их диаметра в мм.
Облачность - указаны через наклонную черту общая и нижняя облачность в баллах и высота нижней границы облаков в метрах; квадратными скобками обозначены формы облаков: Ci - перистые, Cs - перисто-слоистые, Cc - перисто-кучевые, Ac - высококучевые, As - высокослоистые, Sc - слоисто-кучевые, Ns - слоисто-дождевые, Cu - кучевые, Cb - кучево-дождевые. Подробнее классификацию облаков см. в Атласе облаков (PDF).
T - Температура воздуха - температура, измеренная на высоте 2 м над землей.
Td - Температура точки росы - температура, при понижении до которой содержащийся в воздухе водяной пар достигнет насыщения.
f - Относительная влажность воздуха - влажноcть воздуха, измеренная на высоте 2 м над землей.
Te - Эффективная температура - температура, которую ощущает одетый по сезону человек в тени. Характеристика душности погоды. При расчете учитывается влияние влажности воздуха и скорости ветра на теплоощущения человека.
Tes - Эффективная температура на солнце - температура, которую ощущает человек, с поправкой на солнечный нагрев. Характеристика знойности погоды. Зависит от высоты солнца над горизонтом, облачности и скорости ветра. Ночью, в пасмурную погоду, а также при ветре 12 м/с и более поправка равна нулю.
P - Атмосферное давление - приведенное к уровню моря атмосферное давление.
Po - Атмосферное давление - измеренное на уровне метеостанции атмосферное давление.
Tmin - Минимальная температура - минимум температуры воздуха на высоте 2 м над землей.
Tmax - Максимальная температура - максимум температуры воздуха на высоте 2 м над землей.
R - Количество осадков - Количество выпавших осадков за период времени, мм. При наведении курсора мыши на число - период времени, за который выпало указанное количество осадков.
R24 - Количество осадков - Количество выпавших осадков за 24 часа, мм.
S - Снежный покров - Высота снежного покрова, см. При наведении курсора мыши на число - состояние снежного покрова и степень покрытия местности в баллах.